Date,TemperatureHighF,TemperatureAvgF,TemperatureLowF,DewpointHighF,DewpointAvgF,DewpointLowF,HumidityHigh,HumidityAvg,HumidityLow,PressureMaxIn,PressureMinIn,WindSpeedMaxMPH,WindSpeedAvgMPH,GustSpeedMaxMPH,PrecipitationSumIn
2012-1-1,56,45,41,-100,-100,-100,0,0,100,30.27,30.04,10,0,16,0.00
2012-1-2,52,45,38,-100,-100,-100,0,0,100,30.21,29.87,8,2,27,0.49
2012-1-3,54,49,46,-100,-100,-100,0,0,100,30.27,30.13,4,1,11,0.01
2012-1-4,52,48,44,-100,-100,-100,0,0,100,30.16,30.00,8,3,20,0.68
2012-1-5,48,44,39,-100,-100,-100,0,0,100,30.35,30.13,8,4,26,0.16
2012-1-6,41,39,37,-100,-100,-100,0,0,100,30.34,30.25,3,1,11,0.04
2012-1-7,46,41,38,-100,-100,-100,0,0,100,30.43,30.32,4,0,10,0.00
2012-1-8,49,44,40,-100,-100,-100,0,0,100,30.36,30.18,4,1,8,0.00
2012-1-9,50,46,41,-100,-100,-100,0,0,100,30.26,30.18,5,2,14,0.11
2012-1-10,45,39,32,-100,-100,-100,0,0,100,30.51,30.26,3,1,8,0.01
2012-1-11,45,34,30,-100,-100,-100,0,0,100,30.50,30.35,4,1,10,0.00
2012-1-12,43,35,28,-100,-100,-100,0,0,100,30.38,30.25,6,0,10,0.00
2012-1-13,40,34,28,-100,-100,-100,0,0,100,30.30,30.02,4,0,7,0.00
2012-1-14,40,37,34,-100,-100,-100,0,0,100,30.03,29.86,6,3,18,0.23
2012-1-15,39,32,27,-100,-100,-100,0,0,100,30.08,29.95,5,1,11,0.01
2012-1-16,34,32,28,-100,-100,-100,0,0,100,30.10,29.91,7,2,21,0.09
2012-1-17,36,33,31,-100,-100,-100,0,0,100,29.94,29.77,7,3,18,0.24
2012-1-18,32,30,28,-100,-100,-100,0,0,100,29.94,29.60,6,2,13,0.00
2012-1-19,29,28,26,-100,-100,-100,0,0,100,29.77,29.55,0,0,2,0.00
2012-1-20,46,36,29,-100,-100,-100,0,0,100,29.74,29.02,9,1,16,1.31
2012-1-21,47,42,38,-100,-100,-100,0,0,100,29.88,29.00,10,5,29,0.38
2012-1-22,46,40,37,-100,-100,-100,0,0,100,29.87,29.41,12,4,24,0.22
2012-1-23,50,41,36,-100,-100,-100,0,0,100,30.01,29.79,5,1,14,0.00
2012-1-24,52,43,36,-100,-100,-100,0,0,100,29.99,29.62,10,3,32,0.16
2012-1-25,48,44,40,-100,-100,-100,0,0,100,30.24,29.87,11,5,32,0.21
2012-1-26,48,41,33,-100,-100,-100,0,0,100,30.57,29.88,9,2,25,0.25
2012-1-27,46,35,29,-100,-100,-100,0,0,100,30.61,30.47,3,0,6,0.01
2012-1-28,45,38,32,-100,-100,-100,0,0,100,30.47,30.07,4,0,9,0.00
2012-1-29,49,46,40,-100,-100,-100,0,0,100,30.07,29.75,6,3,16,0.87
2012-1-30,48,45,44,-100,-100,-100,0,0,100,30.04,29.80,7,3,19,0.18
2012-1-31,51,46,43,-100,-100,-100,0,0,100,30.05,29.85,4,2,15,0.04
2012-2-1,47,43,40,-100,-100,-100,0,0,100,30.43,29.84,4,1,12,0.54
2012-2-2,49,41,35,-100,-100,-100,0,0,100,30.45,30.21,4,1,8,0.00
2012-2-3,60,46,34,-100,-100,-100,0,0,100,30.22,30.05,8,2,17,0.00
2012-2-4,60,48,37,-100,-100,-100,0,0,100,30.17,30.09,8,1,16,0.00
2012-2-5,57,45,36,-100,-100,-100,0,0,100,30.20,30.11,3,0,8,0.00
2012-2-6,62,48,34,-100,-100,-100,0,0,100,30.11,29.88,11,3,23,0.00
2012-2-7,62,52,43,-100,-100,-100,0,0,100,29.99,29.83,8,2,18,0.00
2012-2-8,51,46,41,-100,-100,-100,0,0,100,30.25,29.99,4,1,10,0.03
2012-2-9,50,47,45,-100,-100,-100,0,0,100,30.25,30.01,4,1,8,0.09
2012-2-10,57,49,44,-100,-100,-100,0,0,100,30.04,29.89,5,1,11,0.19
2012-2-11,48,45,42,-100,-100,-100,0,0,100,30.14,30.04,4,1,12,0.02
2012-2-12,48,44,42,-100,-100,-100,0,0,100,30.11,29.87,4,0,8,0.01
2012-2-13,45,42,41,-100,-100,-100,0,0,100,30.04,29.90,1,0,6,0.33
2012-2-14,44,40,36,-100,-100,-100,0,0,100,30.17,29.90,4,1,13,0.12
2012-2-15,48,39,34,-100,-100,-100,0,0,100,30.37,30.17,4,0,10,0.01
2012-2-16,45,42,37,-100,-100,-100,0,0,100,30.28,30.18,6,1,14,0.06
2012-2-17,53,44,41,-100,-100,-100,0,0,100,30.24,29.81,8,2,18,0.53
2012-2-18,44,41,38,-100,-100,-100,0,0,100,30.03,29.86,8,5,30,0.27
2012-2-19,45,41,36,-100,-100,-100,0,0,100,30.07,29.88,6,2,20,0.01
2012-2-20,45,40,35,-100,-100,-100,0,0,100,29.99,29.86,5,1,12,0.20
2012-2-21,50,48,45,-100,-100,-100,0,0,100,30.05,29.96,9,5,32,0.08
2012-2-22,53,46,40,-100,-100,-100,0,0,100,30.28,29.91,10,4,31,0.17
2012-2-23,48,43,39,-100,-100,-100,0,0,100,30.37,30.26,5,2,15,0.00
2012-2-24,46,43,40,-100,-100,-100,0,0,100,30.26,29.57,5,2,17,0.42
2012-2-25,46,40,37,-100,-100,-100,0,0,100,30.16,29.57,7,3,17,0.01
2012-2-26,41,36,29,-100,-100,-100,0,0,100,30.17,30.10,7,2,13,0.06
2012-2-27,45,35,27,-100,-100,-100,0,0,100,30.18,29.95,5,1,10,0.00
2012-2-28,47,38,30,-100,-100,-100,0,0,100,29.95,29.43,12,3,25,0.18
2012-2-29,41,38,34,-100,-100,-100,0,0,100,29.76,29.50,8,4,33,0.09
2012-3-1,47,39,36,-100,-100,-100,0,0,100,30.32,29.76,5,2,13,0.00
2012-3-2,45,42,39,-100,-100,-100,0,0,100,30.38,30.29,5,2,15,0.12
2012-3-3,55,49,44,-100,-100,-100,0,0,100,30.33,30.28,9,4,30,0.00
2012-3-4,51,48,44,-100,-100,-100,0,0,100,30.32,29.95,6,3,22,0.01
2012-3-5,48,42,35,-100,-100,-100,0,0,100,29.95,29.68,8,4,28,0.25
2012-3-6,47,37,32,-100,-100,-100,0,0,100,30.33,29.87,6,1,14,0.10
2012-3-7,48,38,28,-100,-100,-100,0,0,100,30.45,30.33,4,0,8,0.00
2012-3-8,62,46,31,-100,-100,-100,0,0,100,30.35,30.13,4,1,8,0.00
2012-3-9,51,46,42,-100,-100,-100,0,0,100,30.21,29.93,4,1,11,0.11
2012-3-10,46,44,43,-100,-100,-100,0,0,100,29.94,29.61,4,1,14,0.45
2012-3-11,45,40,37,-100,-100,-100,0,0,100,29.75,29.56,7,4,24,0.34
2012-3-12,48,42,35,-100,-100,-100,0,0,100,29.65,29.31,11,3,24,0.62
2012-3-13,43,36,33,-100,-100,-100,0,0,100,29.85,29.35,10,3,30,0.20
2012-3-14,44,39,34,-100,-100,-100,0,0,100,29.85,29.67,8,3,21,0.44
2012-3-15,51,46,41,-100,-100,-100,0,0,100,29.67,29.46,10,3,39,1.09
2012-3-16,51,44,39,-100,-100,-100,0,0,100,29.69,29.35,6,3,20,0.21
2012-3-17,49,41,34,-100,-100,-100,0,0,100,29.63,29.32,5,2,12,0.38
2012-3-18,42,38,34,-100,-100,-100,0,0,100,29.82,29.60,4,1,8,0.17
2012-3-19,47,39,31,-100,-100,-100,0,0,100,29.88,29.62,5,2,12,0.02
2012-3-20,46,41,36,-100,-100,-100,0,0,100,29.95,29.49,10,4,30,0.18
2012-3-21,51,42,35,-100,-100,-100,0,0,100,30.01,29.79,6,2,16,0.01
2012-3-22,52,42,34,-100,-100,-100,0,0,100,30.03,29.78,6,1,14,0.23
2012-3-23,58,43,31,-100,-100,-100,0,0,100,30.04,29.93,4,1,9,0.00
2012-3-24,64,46,33,-100,-100,-100,0,0,100,30.02,29.85,7,1,14,0.00
2012-3-25,62,48,36,-100,-100,-100,0,0,100,29.86,29.68,5,1,14,0.00
2012-3-26,56,48,43,-100,-100,-100,0,0,100,29.80,29.70,6,3,17,0.00
2012-3-27,60,50,42,-100,-100,-100,0,0,100,29.73,29.46,9,3,22,0.08
2012-3-28,53,48,44,-100,-100,-100,0,0,100,29.78,29.51,7,3,24,0.07
2012-3-29,50,46,43,-100,-100,-100,0,0,100,29.66,29.40,6,2,18,0.95
2012-3-30,51,45,41,-100,-100,-100,0,0,100,29.74,29.44,8,2,29,0.20
2012-3-31,51,42,38,-100,-100,-100,0,0,100,29.69,29.39,5,1,13,0.25
2012-4-1,52,44,41,-100,-100,-100,0,0,100,30.17,29.47,9,4,32,0.04
2012-4-2,65,53,42,-100,-100,-100,0,0,100,30.20,29.84,7,2,15,0.00
2012-4-3,53,47,39,-100,-100,-100,0,0,100,29.96,29.72,6,2,23,0.14
2012-4-4,54,43,38,-100,-100,-100,0,0,100,30.07,29.94,5,1,10,0.00
2012-4-5,50,42,38,-100,-100,-100,0,0,100,30.14,30.07,6,1,14,0.21
2012-4-6,56,45,39,-100,-100,-100,0,0,100,30.27,30.14,6,1,13,0.00
2012-4-7,63,49,34,-100,-100,-100,0,0,100,30.28,30.13,9,4,18,0.00
2012-4-8,70,59,47,-100,-100,-100,0,0,100,30.14,29.95,10,3,20,0.00
2012-4-9,70,57,45,-100,-100,-100,0,0,100,29.96,29.79,4,0,10,0.00
2012-4-10,67,56,48,-100,-100,-100,0,0,100,29.79,29.69,6,1,13,0.00
2012-4-11,55,50,45,-100,-100,-100,0,0,100,29.76,29.64,4,1,11,0.13
2012-4-12,60,49,43,-100,-100,-100,0,0,100,29.80,29.68,8,2,24,0.04
2012-4-13,62,49,37,-100,-100,-100,0,0,100,29.88,29.78,8,2,15,0.00
2012-4-14,63,50,38,-100,-100,-100,0,0,100,30.12,29.89,5,1,13,0.00
2012-4-15,63,53,46,-100,-100,-100,0,0,100,30.17,29.96,4,2,11,0.00
2012-4-16,59,51,44,-100,-100,-100,0,0,100,30.17,29.84,8,3,28,0.09
2012-4-17,52,46,41,-100,-100,-100,0,0,100,30.19,29.96,5,2,10,0.00
2012-4-18,60,50,44,-100,-100,-100,0,0,100,30.05,29.93,6,2,17,0.05
2012-4-19,58,50,42,-100,-100,-100,0,0,100,30.06,29.96,5,1,14,0.25
2012-4-20,58,50,45,-100,-100,-100,0,0,100,30.23,30.00,5,1,18,0.36
2012-4-21,69,54,41,-100,-100,-100,0,0,100,30.17,29.96,3,0,8,0.00
2012-4-22,77,60,47,-100,-100,-100,0,0,100,29.98,29.83,4,1,9,0.00
2012-4-23,76,60,49,-100,-100,-100,0,0,100,29.89,29.77,4,1,12,0.00
2012-4-24,58,55,52,-100,-100,-100,0,0,100,29.91,29.79,5,2,13,0.08
2012-4-25,61,55,49,-100,-100,-100,0,0,100,29.80,29.59,6,1,11,0.52
2012-4-26,58,50,44,-100,-100,-100,0,0,100,30.01,29.58,7,2,21,0.20
2012-4-27,60,50,44,-100,-100,-100,0,0,100,30.27,30.01,6,3,18,0.00
2012-4-28,64,55,46,-100,-100,-100,0,0,100,30.27,30.15,6,2,13,0.00
2012-4-29,62,55,51,-100,-100,-100,0,0,100,30.16,29.77,4,1,10,0.00
2012-4-30,57,50,46,-100,-100,-100,0,0,100,29.88,29.64,9,4,32,0.34
2012-5-1,56,48,42,-100,-100,-100,0,0,100,29.95,29.88,6,4,21,0.00
2012-5-2,58,49,42,-100,-100,-100,0,0,100,29.99,29.74,5,2,11,0.01
2012-5-3,53,48,45,-100,-100,-100,0,0,100,29.92,29.57,3,0,10,0.53
2012-5-4,55,46,43,-100,-100,-100,0,0,100,30.33,29.92,6,2,13,0.30
2012-5-5,59,49,41,-100,-100,-100,0,0,100,30.48,30.34,5,2,15,0.07
2012-5-6,67,53,39,-100,-100,-100,0,0,100,30.48,30.34,5,1,12,0.02
2012-5-7,78,59,43,-100,-100,-100,0,0,100,30.35,30.06,5,1,10,0.00
2012-5-8,68,57,49,-100,-100,-100,0,0,100,30.13,30.05,7,2,12,0.00
2012-5-9,59,49,43,-100,-100,-100,0,0,100,30.32,30.13,6,3,14,0.00
2012-5-10,63,49,40,-100,-100,-100,0,0,100,30.41,30.30,6,2,14,0.00
2012-5-11,69,54,38,-100,-100,-100,0,0,100,30.32,30.14,6,2,13,0.00
2012-5-12,80,61,43,-100,-100,-100,0,0,100,30.19,30.08,6,2,13,0.00
2012-5-13,82,66,49,-100,-100,-100,0,0,100,30.16,30.01,6,2,13,0.00
2012-5-14,83,68,53,-100,-100,-100,0,0,100,30.04,29.93,5,1,11,0.00
2012-5-15,77,63,52,-100,-100,-100,0,0,100,30.07,29.98,7,3,14,0.00
2012-5-16,70,60,49,-100,-100,-100,0,0,100,30.07,29.98,6,2,12,0.00
2012-5-17,66,55,45,-100,-100,-100,0,0,100,30.04,29.95,5,2,12,0.00
2012-5-18,61,52,45,-100,-100,-100,0,0,100,30.16,30.03,5,2,11,0.00
2012-5-19,68,56,42,-100,-100,-100,0,0,100,30.10,29.99,4,1,9,0.00
2012-5-20,60,56,53,-100,-100,-100,0,0,100,30.00,29.91,3,1,8,0.09
2012-5-21,62,56,52,-100,-100,-100,0,0,100,29.91,29.77,6,2,24,0.35
2012-5-22,55,52,49,-100,-100,-100,0,0,100,29.92,29.85,5,2,16,0.16
2012-5-23,60,52,47,-100,-100,-100,0,0,100,29.99,29.90,6,3,20,0.05
2012-5-24,65,52,47,-100,-100,-100,0,0,100,29.96,29.77,5,1,14,0.05
2012-5-25,73,58,47,-100,-100,-100,0,0,100,29.89,29.81,5,2,13,0.00
2012-5-26,70,56,54,-100,-100,-100,0,0,100,29.93,29.87,6,4,16,0.00
2012-5-27,67,58,54,-100,-100,-100,0,0,100,30.05,29.93,5,3,15,0.00
2012-5-28,63,56,51,-100,-100,-100,0,0,100,30.10,30.01,6,2,15,0.03
2012-5-29,58,51,49,-100,-100,-100,0,0,100,30.15,30.10,4,1,8,0.00
2012-5-30,69,62,55,-100,-100,-100,0,0,100,30.22,30.11,5,2,10,0.00
2012-5-31,67,60,55,-100,-100,-100,0,0,100,30.12,29.97,4,1,12,0.14
2012-6-1,69,62,54,-100,-100,-100,0,0,100,29.97,29.86,6,2,17,0.13
2012-6-2,68,58,53,-100,-100,-100,0,0,100,29.90,29.83,6,2,16,0.01
2012-6-3,66,59,53,-100,-100,-100,0,0,100,29.94,29.86,4,1,9,0.00
2012-6-4,56,52,47,-100,-100,-100,0,0,100,29.87,29.71,4,1,9,0.04
2012-6-5,54,50,47,-100,-100,-100,0,0,100,30.19,29.80,7,2,13,0.57
2012-6-6,63,53,43,-100,-100,-100,0,0,100,30.18,29.96,5,2,15,0.06
2012-6-7,64,53,48,-100,-100,-100,0,0,100,29.96,29.79,8,2,22,0.01
2012-6-8,61,52,46,-100,-100,-100,0,0,100,30.02,29.93,5,1,14,0.01
2012-6-9,64,54,47,-100,-100,-100,0,0,100,30.20,30.02,5,2,16,0.00
2012-6-10,68,58,50,-100,-100,-100,0,0,100,30.24,30.17,5,2,12,0.00
2012-6-11,77,63,48,-100,-100,-100,0,0,100,30.17,30.02,4,1,9,0.00
2012-6-12,65,60,57,-100,-100,-100,0,0,100,30.03,29.95,5,2,19,0.00
2012-6-13,61,56,51,-100,-100,-100,0,0,100,30.15,29.98,6,2,23,0.00
2012-6-14,63,54,50,-100,-100,-100,0,0,100,30.13,30.09,4,1,10,0.00
2012-6-15,74,62,46,-100,-100,-100,0,0,100,30.17,30.10,4,1,10,0.00
2012-6-16,72,65,61,-100,-100,-100,0,0,100,30.11,29.90,6,2,18,0.00
2012-6-17,70,61,54,-100,-100,-100,0,0,100,29.91,29.84,7,4,24,0.00
2012-6-18,62,54,50,-100,-100,-100,0,0,100,30.01,29.81,7,2,20,0.24
2012-6-19,70,57,50,-100,-100,-100,0,0,100,30.14,30.01,4,1,10,0.00
2012-6-20,79,62,48,-100,-100,-100,0,0,100,30.13,29.88,5,1,11,0.00
2012-6-21,76,64,53,-100,-100,-100,0,0,100,29.91,29.72,5,1,12,0.00
2012-6-22,58,55,53,-100,-100,-100,0,0,100,29.79,29.68,4,1,9,0.37
2012-6-23,62,55,50,-100,-100,-100,0,0,100,29.92,29.68,5,1,17,0.10
2012-6-24,68,56,48,-100,-100,-100,0,0,100,30.03,29.91,4,1,9,0.00
2012-6-25,68,56,48,-100,-100,-100,0,0,100,30.01,29.91,5,1,9,0.00
2012-6-26,62,55,51,-100,-100,-100,0,0,100,30.04,29.89,6,1,10,0.00
2012-6-27,74,61,46,-100,-100,-100,0,0,100,30.06,29.87,4,1,9,0.00
2012-6-28,76,63,52,-100,-100,-100,0,0,100,29.99,29.87,6,2,15,0.00
2012-6-29,73,64,59,-100,-100,-100,0,0,100,30.04,29.96,4,1,9,0.00
2012-6-30,71,64,59,-100,-100,-100,0,0,100,29.98,29.88,4,1,10,0.02
2012-7-1,68,59,54,-100,-100,-100,0,0,100,30.04,29.93,4,1,8,0.00
2012-7-2,66,59,53,-100,-100,-100,0,0,100,30.00,29.86,4,1,10,0.00
2012-7-3,66,58,52,-100,-100,-100,0,0,100,30.13,29.81,8,3,27,0.25
2012-7-4,72,60,50,-100,-100,-100,0,0,100,30.12,29.93,5,2,11,0.00
2012-7-5,77,63,50,-100,-100,-100,0,0,100,30.01,29.94,4,2,10,0.00
2012-7-6,80,66,52,-100,-100,-100,0,0,100,30.08,29.98,5,1,11,0.00
2012-7-7,84,68,53,-100,-100,-100,0,0,100,30.12,29.97,5,2,11,0.00
2012-7-8,87,70,57,-100,-100,-100,0,0,100,30.04,29.89,6,2,11,0.00
2012-7-9,80,68,58,-100,-100,-100,0,0,100,30.06,29.97,4,2,10,0.00
2012-7-10,76,63,54,-100,-100,-100,0,0,100,30.16,30.02,4,2,10,0.00
2012-7-11,85,69,56,-100,-100,-100,0,0,100,30.04,29.92,5,2,12,0.00
2012-7-12,82,68,58,-100,-100,-100,0,0,100,29.96,29.89,4,2,11,0.00
2012-7-13,75,64,58,-100,-100,-100,0,0,100,30.02,29.91,5,2,10,0.00
2012-7-14,78,68,59,-100,-100,-100,0,0,100,29.94,29.86,5,1,11,0.00
2012-7-15,69,62,57,-100,-100,-100,0,0,100,29.91,29.84,6,3,20,0.00
2012-7-16,82,67,54,-100,-100,-100,0,0,100,29.90,29.74,5,1,11,0.00
2012-7-17,72,67,61,-100,-100,-100,0,0,100,29.88,29.75,5,2,14,0.00
2012-7-18,69,64,58,-100,-100,-100,0,0,100,30.02,29.88,4,2,11,0.00
2012-7-19,81,69,60,-100,-100,-100,0,0,100,30.03,29.85,5,1,11,0.00
2012-7-20,68,63,58,-100,-100,-100,0,0,100,30.15,29.90,6,2,16,0.46
2012-7-21,78,67,60,-100,-100,-100,0,0,100,30.15,30.02,4,1,11,0.00
2012-7-22,68,60,56,-100,-100,-100,0,0,100,30.12,30.02,5,2,14,0.00
2012-7-23,68,59,54,-100,-100,-100,0,0,100,30.19,30.12,4,2,12,0.00
2012-7-24,76,63,52,-100,-100,-100,0,0,100,30.14,29.96,5,2,12,0.00
2012-7-25,82,67,55,-100,-100,-100,0,0,100,29.99,29.86,6,1,11,0.00
2012-7-26,82,69,58,-100,-100,-100,0,0,100,29.94,29.84,4,2,10,0.00
2012-7-27,66,61,58,-100,-100,-100,0,0,100,30.08,29.90,5,2,12,0.00
2012-7-28,74,63,56,-100,-100,-100,0,0,100,30.13,30.08,5,1,11,0.00
2012-7-29,76,65,57,-100,-100,-100,0,0,100,30.14,30.05,5,1,10,0.00
2012-7-30,67,61,57,-100,-100,-100,0,0,100,30.13,30.07,5,1,12,0.00
2012-7-31,76,64,56,-100,-100,-100,0,0,100,30.14,30.09,4,1,12,0.00
2012-8-1,78,64,53,-100,-100,-100,0,0,100,30.17,30.09,4,1,10,0.00
2012-8-2,76,64,54,-100,-100,-100,0,0,100,30.14,30.06,6,1,12,0.00
2012-8-3,84,68,54,-100,-100,-100,0,0,100,30.10,29.94,5,2,12,0.00
2012-8-4,95,77,61,-100,-100,-100,0,0,100,29.94,29.77,6,2,10,0.00
2012-8-5,94,78,64,-100,-100,-100,0,0,100,29.92,29.81,5,1,10,0.00
2012-8-6,83,71,63,-100,-100,-100,0,0,100,30.05,29.92,5,2,13,0.00
2012-8-7,70,64,60,-100,-100,-100,0,0,100,30.05,29.99,4,1,11,0.00
2012-8-8,71,64,59,-100,-100,-100,0,0,100,30.17,30.03,4,1,11,0.00
2012-8-9,77,65,56,-100,-100,-100,0,0,100,30.17,30.05,6,2,12,0.00
2012-8-10,79,67,55,-100,-100,-100,0,0,100,30.11,30.00,5,2,14,0.00
2012-8-11,85,70,57,-100,-100,-100,0,0,100,30.06,29.92,4,1,11,0.00
2012-8-12,89,73,59,-100,-100,-100,0,0,100,29.96,29.86,5,1,12,0.00
2012-8-13,88,72,59,-100,-100,-100,0,0,100,29.99,29.90,5,2,14,0.00
2012-8-14,85,71,60,-100,-100,-100,0,0,100,29.96,29.83,6,2,14,0.00
2012-8-15,91,73,59,-100,-100,-100,0,0,100,29.92,29.80,6,2,12,0.00
2012-8-16,97,79,62,-100,-100,-100,0,0,100,29.90,29.80,4,2,10,0.00
2012-8-17,92,76,62,-100,-100,-100,0,0,100,29.94,29.83,4,1,8,0.00
2012-8-18,74,66,60,-100,-100,-100,0,0,100,29.94,29.82,6,2,13,0.00
2012-8-19,74,66,60,-100,-100,-100,0,0,100,30.00,29.90,5,2,12,0.00
2012-8-20,79,68,60,-100,-100,-100,0,0,100,30.02,29.90,4,1,10,0.00
2012-8-21,75,67,61,-100,-100,-100,0,0,100,30.01,29.96,6,3,14,0.00
2012-8-22,75,63,58,-100,-100,-100,0,0,100,30.09,30.01,6,2,10,0.00
2012-8-23,71,61,57,-100,-100,-100,0,0,100,30.08,30.01,7,2,13,0.00
2012-8-24,74,61,50,-100,-100,-100,0,0,100,30.17,29.99,5,2,14,0.00
2012-8-25,82,65,50,-100,-100,-100,0,0,100,29.99,29.70,5,1,10,0.00
2012-8-26,72,63,56,-100,-100,-100,0,0,100,29.93,29.70,6,2,15,0.00
2012-8-27,76,65,55,-100,-100,-100,0,0,100,30.02,29.93,5,1,13,0.00
2012-8-28,76,64,56,-100,-100,-100,0,0,100,30.04,29.97,5,1,14,0.00
2012-8-29,74,64,57,-100,-100,-100,0,0,100,30.11,30.01,4,1,10,0.00
2012-8-30,74,63,56,-100,-100,-100,0,0,100,30.03,29.85,5,1,11,0.00
2012-8-31,72,61,52,-100,-100,-100,0,0,100,29.96,29.88,5,2,12,0.00
2012-9-1,74,61,50,-100,-100,-100,0,0,100,30.11,29.96,6,2,11,0.00
2012-9-2,73,60,52,-100,-100,-100,0,0,100,30.16,30.09,4,1,10,0.00
2012-9-3,75,61,52,-100,-100,-100,0,0,100,30.15,30.08,5,1,15,0.00
2012-9-4,77,64,51,-100,-100,-100,0,0,100,30.17,30.07,4,1,11,0.00
2012-9-5,82,65,53,-100,-100,-100,0,0,100,30.07,29.89,4,1,14,0.00
2012-9-6,84,67,55,-100,-100,-100,0,0,100,30.01,29.92,5,1,12,0.00
2012-9-7,92,72,56,-100,-100,-100,0,0,100,30.10,29.96,5,1,12,0.00
2012-9-8,81,68,57,-100,-100,-100,0,0,100,29.98,29.87,6,2,15,0.00
2012-9-9,66,61,58,-100,-100,-100,0,0,100,29.98,29.92,6,3,18,0.00
2012-9-10,70,58,50,-100,-100,-100,0,0,100,30.17,29.91,7,3,18,0.04
2012-9-11,69,57,48,-100,-100,-100,0,0,100,30.28,30.17,5,1,13,0.00
2012-9-12,75,58,45,-100,-100,-100,0,0,100,30.33,30.18,6,1,10,0.00
2012-9-13,83,63,49,-100,-100,-100,0,0,100,30.20,30.00,5,1,8,0.00
2012-9-14,80,65,52,-100,-100,-100,0,0,100,30.05,29.96,4,1,8,0.00
2012-9-15,75,62,52,-100,-100,-100,0,0,100,30.13,30.01,3,0,8,0.00
2012-9-16,77,62,51,-100,-100,-100,0,0,100,30.17,30.08,4,1,10,0.00
2012-9-17,84,66,53,-100,-100,-100,0,0,100,30.10,29.96,5,1,10,0.00
2012-9-18,82,67,55,-100,-100,-100,0,0,100,30.04,29.96,3,1,8,0.00
2012-9-19,77,62,52,-100,-100,-100,0,0,100,30.13,30.01,4,1,10,0.00
2012-9-20,71,60,52,-100,-100,-100,0,0,100,30.08,29.99,4,1,11,0.00
2012-9-21,60,58,56,-100,-100,-100,0,0,100,30.12,30.07,3,1,9,0.00
2012-9-22,67,58,53,-100,-100,-100,0,0,100,30.13,30.08,3,0,8,0.02
2012-9-23,69,58,48,-100,-100,-100,0,0,100,30.13,30.07,4,1,11,0.00
2012-9-24,73,60,50,-100,-100,-100,0,0,100,30.12,30.05,4,1,10,0.00
2012-9-25,68,58,53,-100,-100,-100,0,0,100,30.12,30.06,3,1,9,0.00
2012-9-26,68,56,47,-100,-100,-100,0,0,100,30.10,30.01,4,0,8,0.00
2012-9-27,73,60,49,-100,-100,-100,0,0,100,30.05,29.90,4,1,8,0.00
2012-9-28,75,62,54,-100,-100,-100,0,0,100,29.98,29.90,4,0,10,0.00
2012-9-29,69,60,52,-100,-100,-100,0,0,100,30.27,29.98,5,2,13,0.00
2012-9-30,71,57,47,-100,-100,-100,0,0,100,30.37,30.27,5,1,11,0.00
2012-10-1,76,60,48,-100,-100,-100,0,0,100,30.32,30.06,5,1,12,0.00
2012-10-2,67,56,47,-100,-100,-100,0,0,100,30.25,30.11,5,1,14,0.00
2012-10-3,68,52,41,-100,-100,-100,0,0,100,30.36,30.25,5,1,14,0.00
2012-10-4,67,53,42,-100,-100,-100,0,0,100,30.27,30.20,6,1,15,0.00
2012-10-5,72,55,43,-100,-100,-100,0,0,100,30.27,30.16,6,2,13,0.00
2012-10-6,77,58,45,-100,-100,-100,0,0,100,30.20,30.07,5,2,10,0.00
2012-10-7,78,58,46,-100,-100,-100,0,0,100,30.07,29.89,4,1,8,0.00
2012-10-8,73,57,44,-100,-100,-100,0,0,100,30.01,29.89,5,1,9,0.00
2012-10-9,62,53,48,-100,-100,-100,0,0,100,30.11,30.00,4,1,9,0.00
2012-10-10,56,50,45,-100,-100,-100,0,0,100,30.02,29.95,4,0,7,0.00
2012-10-11,61,51,47,-100,-100,-100,0,0,100,29.97,29.77,3,1,8,0.00
2012-10-12,57,53,47,-100,-100,-100,0,0,100,29.96,29.80,4,2,17,0.00
2012-10-13,59,57,53,-100,-100,-100,0,0,100,30.12,29.96,5,2,18,0.00
2012-10-14,63,59,58,-100,-100,-100,0,0,100,30.09,29.84,4,1,12,0.31
2012-10-15,62,58,52,-100,-100,-100,0,0,100,29.94,29.52,7,2,36,0.17
2012-10-16,63,55,48,-100,-100,-100,0,0,100,30.25,29.54,6,3,19,0.00
2012-10-17,59,50,42,-100,-100,-100,0,0,100,30.32,30.16,5,0,8,0.00
2012-10-18,65,54,44,-100,-100,-100,0,0,100,30.17,29.77,5,1,13,0.50
2012-10-19,58,54,46,-100,-100,-100,0,0,100,29.79,29.73,7,4,20,0.11
2012-10-20,51,45,42,-100,-100,-100,0,0,100,29.87,29.76,6,2,16,0.09
2012-10-21,53,44,40,-100,-100,-100,0,0,100,29.86,29.75,4,1,15,0.18
2012-10-22,44,41,37,-100,-100,-100,0,0,100,29.74,29.55,3,0,7,0.15
2012-10-23,52,45,41,-100,-100,-100,0,0,100,29.85,29.63,4,1,14,0.00
2012-10-24,54,45,43,-100,-100,-100,0,0,100,30.13,29.83,6,1,14,0.27
2012-10-25,53,46,42,-100,-100,-100,0,0,100,30.39,30.13,2,0,7,0.01
2012-10-26,51,46,43,-100,-100,-100,0,0,100,30.29,29.99,4,1,12,0.10
2012-10-27,57,51,48,-100,-100,-100,0,0,100,30.01,29.71,7,3,24,0.66
2012-10-28,59,55,50,-100,-100,-100,0,0,100,29.92,29.73,8,2,28,0.28
2012-10-29,61,56,50,-100,-100,-100,0,0,100,29.99,29.68,8,3,25,0.53
2012-10-30,59,56,53,-100,-100,-100,0,0,100,29.95,29.73,4,0,13,1.26
2012-10-31,59,56,52,-100,-100,-100,0,0,100,29.73,29.60,4,1,10,0.45
2012-11-1,58,53,51,-100,-100,-100,0,0,100,29.99,29.69,5,1,13,0.35
2012-11-2,59,54,50,-100,-100,-100,0,0,100,30.01,29.93,3,0,8,0.19
2012-11-3,59,55,52,-100,-100,-100,0,0,100,30.14,29.94,6,1,19,0.02
2012-11-4,63,58,54,-100,-100,-100,0,0,100,30.27,30.13,5,1,14,0.25
2012-11-5,59,52,46,-100,-100,-100,0,0,100,30.37,30.14,6,1,11,0.17
2012-11-6,58,50,45,-100,-100,-100,0,0,100,30.13,29.92,6,2,21,0.00
2012-11-7,55,47,39,-100,-100,-100,0,0,100,30.11,29.92,5,1,16,0.00
2012-11-8,46,40,34,-100,-100,-100,0,0,100,29.92,29.79,4,0,8,0.00
2012-11-9,47,39,33,-100,-100,-100,0,0,100,29.93,29.81,3,0,10,0.00
2012-11-10,46,36,30,-100,-100,-100,0,0,100,30.19,29.93,4,0,9,0.00
2012-11-11,47,40,31,-100,-100,-100,0,0,100,30.22,30.05,4,0,8,0.43
2012-11-12,52,47,43,-100,-100,-100,0,0,100,30.18,30.06,4,1,10,0.09
2012-11-13,53,49,47,-100,-100,-100,0,0,100,30.18,30.11,3,0,10,0.27
2012-11-14,54,47,42,-100,-100,-100,0,0,100,30.29,30.14,3,0,7,0.01
2012-11-15,53,42,36,-100,-100,-100,0,0,100,30.25,29.92,4,0,7,0.00
2012-11-16,47,41,34,-100,-100,-100,0,0,100,29.92,29.68,4,0,8,0.17
2012-11-17,58,48,42,-100,-100,-100,0,0,100,29.69,29.44,9,3,20,0.31
2012-11-18,50,46,42,-100,-100,-100,0,0,100,29.75,29.50,7,2,23,0.48
2012-11-19,53,50,47,-100,-100,-100,0,0,100,29.67,29.33,11,4,37,2.10
2012-11-20,51,47,44,-100,-100,-100,0,0,100,29.68,29.51,8,2,33,0.21
2012-11-21,46,43,41,-100,-100,-100,0,0,100,30.26,29.50,9,3,28,0.42
2012-11-22,47,43,38,-100,-100,-100,0,0,100,30.34,30.15,4,0,8,0.01
2012-11-23,49,46,42,-100,-100,-100,0,0,100,30.19,29.99,6,0,10,1.14
2012-11-24,51,45,38,-100,-100,-100,0,0,100,30.24,30.09,3,0,8,0.02
2012-11-25,46,40,36,-100,-100,-100,0,0,100,30.32,30.18,4,1,8,0.00
2012-11-26,51,38,31,-100,-100,-100,0,0,100,30.21,30.02,4,1,8,0.01
2012-11-27,51,40,34,-100,-100,-100,0,0,100,30.06,29.85,3,0,6,0.00
2012-11-28,47,42,37,-100,-100,-100,0,0,100,29.86,29.57,5,0,8,0.12
2012-11-29,52,49,46,-100,-100,-100,0,0,100,29.69,29.41,12,2,23,0.13
2012-11-30,58,50,46,-100,-100,-100,0,0,100,29.44,29.34,7,2,25,1.18
2012-12-1,55,49,46,-100,-100,-100,0,0,100,29.61,29.25,9,4,24,0.25
2012-12-2,47,45,43,-100,-100,-100,0,0,100,29.77,29.16,7,4,25,0.78
2012-12-3,49,46,44,-100,-100,-100,0,0,100,29.98,29.62,6,2,19,0.33
2012-12-4,53,49,44,-100,-100,-100,0,0,100,29.81,29.51,8,4,21,0.46
2012-12-5,49,44,40,-100,-100,-100,0,0,100,30.17,29.81,8,3,21,0.01
2012-12-6,44,43,42,-100,-100,-100,0,0,100,30.14,30.01,6,3,18,0.04
2012-12-7,46,42,39,-100,-100,-100,0,0,100,30.11,29.91,7,3,20,0.09
2012-12-8,43,39,37,-100,-100,-100,0,0,100,30.31,30.10,4,1,10,0.01
2012-12-9,42,40,37,-100,-100,-100,0,0,100,30.34,30.25,3,0,6,0.18
2012-12-10,44,43,41,-100,-100,-100,0,0,100,30.38,30.07,2,0,10,0.00
2012-12-11,45,43,42,-100,-100,-100,0,0,100,30.06,29.53,5,2,17,0.12
2012-12-12,43,41,39,-100,-100,-100,0,0,100,29.99,29.59,2,0,8,0.32
2012-12-13,44,41,39,-100,-100,-100,0,0,100,30.01,29.78,4,0,10,0.11
2012-12-14,41,38,33,-100,-100,-100,0,0,100,29.91,29.75,4,0,10,0.26
2012-12-15,40,37,32,-100,-100,-100,0,0,100,29.90,29.51,8,2,19,0.22
2012-12-16,45,40,37,-100,-100,-100,0,0,100,29.71,28.95,12,4,23,0.72
2012-12-17,45,41,35,-100,-100,-100,0,0,100,29.85,28.91,10,5,32,0.11
2012-12-18,40,36,33,-100,-100,-100,0,0,100,29.95,29.84,6,3,17,0.06
2012-12-19,45,39,34,-100,-100,-100,0,0,100,29.92,29.52,7,3,26,0.85
2012-12-20,44,40,32,-100,-100,-100,0,0,100,29.80,29.48,5,1,24,0.76
2012-12-21,46,37,30,-100,-100,-100,0,0,100,29.79,29.63,4,0,8,0.02
2012-12-22,47,41,38,-100,-100,-100,0,0,100,29.71,29.47,7,1,23,0.08
2012-12-23,45,41,36,-100,-100,-100,0,0,100,29.78,29.58,4,0,12,0.31
2012-12-24,43,40,37,-100,-100,-100,0,0,100,30.12,29.79,4,1,12,0.01
2012-12-25,42,39,36,-100,-100,-100,0,0,100,30.01,29.62,8,1,18,0.25
2012-12-26,44,41,38,-100,-100,-100,0,0,100,29.88,29.66,6,2,18,0.18
2012-12-27,43,41,40,-100,-100,-100,0,0,100,30.12,29.88,3,0,10,0.29
2012-12-28,48,41,38,-100,-100,-100,0,0,100,30.12,30.07,5,0,9,0.01
2012-12-29,40,38,38,-100,-100,-100,0,0,100,30.19,30.11,3,0,5,0.08
2012-12-30,40,36,32,-100,-100,-100,0,0,100,30.28,30.18,5,1,9,0.00
2012-12-31,39,34,31,-100,-100,-100,0,0,100,30.42,30.21,5,0,8,0.00
2013-1-1,42,33,28,-100,-100,-100,0,0,100,30.46,30.31,5,1,10,0.01